Starlink 3763

decayed
NORAD ID: 52556 Int'l Des: 2022-051 Owner: SPXS Country: US Constellation: starlink
LEOCIRCULAR

关于 Starlink 3763

正在加载描述...

高度历史

Altitude vs Time

uPlot chart will show altitude changes over time

两行轨道根数

1 52556U 22051Z 26031.84147898 .07956691 12074-4 19732-2 0 9999
2 52556 53.1616 164.7684 0007733 294.9702 65.0537 16.28319472207701
Epoch: Jan 31, 2026 • Age: 759 hours

当前状态

Position data unavailable
发射日期 May 13, 2022
运行时间 3.8 years
衰减日期 Feb 1, 2026
类型 internet

技术详情

分类 Payload
质量 297.00 kg
干质量 275.00 kg
总质量 297.00 kg
长度 0.20 m
直径 2.80 m
跨度 9.00 m
形状 Box + pan
制造商 SPXS
平台类型 Starlink
阶段状态 Unknown Transfer Status
所有者/国家 SPXS/US

大型星座

Loading constellations...